[[{"header":{"parameterUnit":"m.s-1","parameterCategory":1,"la1":30.2991,"la2":30.254,"lo1":-89.0895,"lo2":-89.0444,"dy":0.0017,"dx":0.0017,"nx":28,"ny":28,"refTime":"2024-06-21T09:00:00:Z","depth":0,"parameterNumber":2,"parameterNumberName":"U-component_of_WINDS"},"data":[0,0,0,0,0,0,0,0,0,0,0,0,0,0,0,0,0,0,0,0,0,0,0,0,0,0,0,0,0,0,0,0,0,0,0,0,0,0,0,0,0,0,0,0,0,0,0,0,0,0,0,0,0,0,0,0,0,0,-0.6566,-0.6566,0,-0.6585,-0.6586,-0.6586,-0.6545,-0.6544,-0.6542,-0.6541,-0.6562,-0.6564,-0.6566,0,0,0,0,0,0,0,0,0,0,0,0,0,-0.6493,-0.6494,-0.6566,-0.6566,-0.6566,-0.6585,-0.6586,-0.6586,-0.6545,-0.6544,-0.6542,-0.6541,-0.6562,-0.6564,-0.6566,0,0,0,0,0,0,0,0,0,0,0,0,0,-0.652,-0.6495,-0.6566,-0.6548,-0.6547,-0.6585,-0.6586,-0.6586,-0.6546,-0.6544,-0.6542,-0.654,-0.6561,-0.6564,-0.6566,-0.6623,0,0,-0.6575,-0.6576,0,0,0,0,0,0,0,0,-0.6518,-0.6522,-0.655,-0.6549,-0.6548,-0.6561,-0.6568,-0.6599,-0.6546,-0.6546,-0.6541,-0.6539,-0.6564,-0.6566,-0.6574,-0.6624,-0.6625,-0.6575,-0.6577,-0.6578,-0.6579,0,0,0,0,0,0,0,-0.6516,-0.6521,-0.6573,-0.6551,-0.6549,-0.6539,-0.6541,-0.6573,-0.6566,-0.6546,-0.6543,-0.6546,-0.6562,-0.6572,-0.6574,-0.6625,-0.6575,-0.6577,-0.6579,-0.658,-0.6723,-0.6725,0,0,0,0,0,0,-0.6517,-0.652,-0.6573,-0.6574,-0.6528,-0.6542,-0.6544,-0.6559,-0.6565,-0.6564,-0.6548,-0.6544,-0.6568,-0.6571,-0.6575,-0.6642,-0.6578,-0.658,-0.6582,-0.6721,-0.6723,-0.6726,0,0,0,0,0,0,-0.6515,-0.6522,-0.6572,-0.6546,-0.6552,-0.6546,-0.6562,-0.656,-0.6569,-0.6567,-0.6565,-0.6558,-0.6566,-0.6571,-0.6611,-0.6642,-0.6582,-0.6584,-0.6718,-0.6722,-0.6725,-0.6777,0,0,0,0,0,0,-0.6513,-0.6521,-0.6543,-0.6547,-0.6553,-0.6608,-0.6564,-0.6562,-0.6574,-0.6569,-0.6576,-0.6575,-0.6565,-0.6608,-0.6614,-0.6645,-0.6586,-0.6715,-0.672,-0.6724,-0.6773,-0.6782,-0.6789,0,0,0,0,0,-0.6511,-0.6557,-0.6544,-0.6551,-0.658,-0.661,-0.6614,-0.6601,-0.6576,-0.6598,-0.6596,-0.6575,-0.6637,-0.6612,-0.6619,-0.6651,-0.6713,-0.6718,-0.6723,-0.6769,-0.678,-0.6789,0,0,0,0,0,0,-0.6558,-0.6558,-0.6543,-0.6592,-0.6602,-0.6603,-0.663,-0.6613,-0.663,-0.6625,-0.6608,-0.661,-0.6654,-0.6656,-0.6628,-0.6706,-0.6671,-0.6678,-0.6704,-0.6714,-0.6722,-0.6722,-0.6588,0,0,0,0,0,-0.6574,-0.6598,-0.6596,-0.664,-0.6645,-0.6637,-0.665,-0.6639,-0.6648,-0.6652,-0.6653,-0.6663,-0.6684,-0.6699,-0.6719,-0.6772,-0.6773,-0.6797,-0.6806,-0.6813,-0.6819,-0.6848,-0.6859,-0.6742,-0.6742,-0.6742,0,0,-0.6607,-0.661,-0.6627,-0.6649,-0.6655,-0.6681,-0.6641,-0.667,-0.6689,-0.6656,-0.6694,-0.6695,-0.6705,-0.6752,-0.6773,-0.6756,-0.6851,-0.6819,-0.6825,-0.6827,-0.6854,-0.6865,-0.6875,-0.6745,-0.6744,-0.6744,0,0,-0.6682,-0.6686,-0.6723,-0.6729,-0.6738,-0.6732,-0.6741,-0.6745,-0.6745,-0.6783,-0.6759,-0.6781,-0.6818,-0.6826,-0.6835,-0.6911,-0.6893,-0.6918,-0.6963,-0.6991,-0.7,-0.7009,-0.7037,-0.7047,-0.6924,-0.6924,-0.6924,0,-0.6723,-0.676,-0.6744,-0.6775,-0.6785,-0.6756,-0.6793,-0.68,-0.6816,-0.6824,-0.6804,-0.685,-0.6854,-0.6903,-0.6922,-0.693,-0.6939,-0.6918,-0.7,-0.7008,-0.7016,-0.7042,-0.7053,-0.6927,-0.6927,-0.6927,-0.6926,0,-0.681,-0.6836,-0.6865,-0.688,-0.6894,-0.6928,-0.6917,-0.6933,-0.692,-0.6916,-0.6955,-0.6959,-0.6979,-0.6989,-0.6978,-0.7036,-0.7025,-0.7003,-0.6968,-0.703,-0.7055,-0.7065,-0.6932,-0.6931,-0.693,-0.6929,0,0,-0.6917,-0.6921,-0.6932,-0.6939,-0.6946,-0.6966,-0.6998,-0.7017,-0.7032,-0.7043,-0.707,-0.7101,-0.7081,-0.7091,-0.7079,-0.7104,-0.7164,-0.7078,-0.7078,-0.7095,-0.723,-0.7248,-0.726,-0.7151,-0.7153,-0.7155,-0.723,0,-0.6991,-0.7047,-0.7032,-0.7088,-0.7112,-0.7084,-0.7111,-0.7119,-0.7116,-0.7136,-0.7132,-0.7156,-0.7126,-0.7132,-0.7155,-0.7152,-0.7192,-0.7146,-0.7177,-0.7178,-0.7177,-0.7273,-0.7292,-0.7363,-0.7239,-0.7241,-0.7242,0,-0.7086,-0.7101,-0.7158,-0.7161,-0.7171,-0.7196,-0.7212,-0.7232,-0.7239,-0.7235,-0.7246,-0.723,-0.7261,-0.7224,-0.7268,-0.7238,-0.7249,-0.7249,-0.7252,-0.7256,-0.7215,-0.7281,-0.7385,-0.7396,-0.7257,-0.7256,-0.7255,0,-0.716,-0.7193,-0.7232,-0.7238,-0.7242,-0.7261,-0.7263,-0.7269,-0.7281,-0.7295,-0.7303,-0.732,-0.7331,-0.7344,-0.7333,-0.7307,-0.7379,-0.7341,-0.7377,-0.7377,-0.7395,-0.7394,-0.7504,-0.74,-0.7399,-0.7399,-0.7399,0,-0.7245,-0.7282,-0.7265,-0.7289,-0.7329,-0.7312,-0.7352,-0.7351,-0.7356,-0.738,-0.7355,-0.7378,-0.7361,-0.7382,-0.7373,-0.7411,-0.7415,-0.7413,-0.741,-0.7416,-0.7417,-0.7425,-0.742,-0.7402,-0.7401,-0.7401,-0.74,0,-0.7335,-0.7325,-0.7366,-0.7366,-0.7366,-0.7396,-0.7396,-0.7418,-0.7412,-0.7443,-0.7449,-0.744,-0.7463,-0.7453,-0.7477,-0.7471,-0.752,-0.751,-0.7518,-0.7516,-0.7553,-0.755,-0.7673,-0.7689,-0.7573,-0.7574,-0.7575,0,-0.7392,-0.7419,-0.7422,-0.7435,-0.744,-0.7462,-0.7474,-0.7458,-0.7471,-0.7482,-0.7503,-0.7524,-0.754,-0.7579,-0.7575,-0.7593,-0.7585,-0.7626,-0.7588,-0.7592,-0.7587,-0.7586,-0.7589,-0.7635,-0.7636,-0.7637,-0.7638,0,-0.7493,-0.7486,-0.7505,-0.7521,-0.7536,-0.7549,-0.7559,-0.7572,-0.7555,-0.7572,-0.7595,-0.7608,-0.7632,-0.7654,-0.767,-0.7672,-0.7653,-0.765,-0.766,-0.7667,-0.7671,-0.767,-0.7541,-0.7648,-0.7647,-0.7646,-0.7646,-0.7645,-0.7568,-0.7592,-0.7597,-0.7618,-0.7624,-0.7634,-0.7655,-0.7651,-0.767,-0.7689,-0.7678,-0.7705,-0.7711,-0.7731,-0.7736,-0.7757,-0.7741,-0.7754,-0.7758,-0.7762,-0.7768,-0.7666,-0.776,-0.776,-0.7759,-0.7759,-0.7759,0,-0.767,-0.7671,-0.7691,-0.7706,-0.7722,-0.7701,-0.7711,-0.7727,-0.7751,-0.7758,-0.7774,-0.7801,-0.7822,-0.7819,-0.7837,-0.7855,-0.7847,-0.7861,-0.786,-0.7861,-0.7781,-0.7771,-0.7867,-0.7867,-0.7867,-0.7867,-0.7867,-0.7867,-0.7724,-0.7763,-0.7756,-0.7797,-0.7798,-0.7825,-0.7832,-0.7841,-0.7847,-0.7878,-0.7895,-0.7892,-0.7895,-0.7914,-0.7931,-0.793,-0.7939,-0.7956,-0.7952,-0.7877,-0.7867,-0.7857,-0.7848,-0.7958,-0.7958,-0.803,-0.8031,-0.8031]},{"header":{"parameterUnit":"m.s-1","parameterCategory":1,"la1":30.2991,"la2":30.254,"lo1":-89.0895,"lo2":-89.0444,"dy":0.0017,"dx":0.0017,"nx":28,"ny":28,"refTime":"2024-06-21T09:00:00:Z","depth":0,"parameterNumber":3,"parameterNumberName":"V-component_of_WINDS"},"data":[0,0,0,0,0,0,0,0,0,0,0,0,0,0,0,0,0,0,0,0,0,0,0,0,0,0,0,0,0,0,0,0,0,0,0,0,0,0,0,0,0,0,0,0,0,0,0,0,0,0,0,0,0,0,0,0,0,0,-2.8105,-2.8106,0,-2.8191,-2.8192,-2.8193,-2.8179,-2.8177,-2.8176,-2.8174,-2.8259,-2.8262,-2.8266,0,0,0,0,0,0,0,0,0,0,0,0,0,-2.7924,-2.7928,-2.8105,-2.8106,-2.8107,-2.8191,-2.8192,-2.8193,-2.8179,-2.8177,-2.8175,-2.8173,-2.8258,-2.8262,-2.8266,0,0,0,0,0,0,0,0,0,0,0,0,0,-2.8006,-2.7929,-2.8105,-2.811,-2.8111,-2.8191,-2.8192,-2.8194,-2.8179,-2.8177,-2.8175,-2.8173,-2.8256,-2.8261,-2.8267,-2.8345,0,0,-2.8283,-2.8286,0,0,0,0,0,0,0,0,-2.8001,-2.8012,-2.8108,-2.811,-2.8111,-2.8172,-2.8159,-2.8244,-2.818,-2.8153,-2.8174,-2.8172,-2.8231,-2.8239,-2.826,-2.8349,-2.8353,-2.8284,-2.8287,-2.829,-2.8291,0,0,0,0,0,0,0,-2.7995,-2.8008,-2.8139,-2.811,-2.8112,-2.8107,-2.8116,-2.8175,-2.8204,-2.8155,-2.8155,-2.8165,-2.8232,-2.8254,-2.8262,-2.8354,-2.8284,-2.8289,-2.8292,-2.8294,-2.8512,-2.8514,0,0,0,0,0,0,-2.7989,-2.8004,-2.8136,-2.8141,-2.805,-2.8112,-2.8122,-2.8155,-2.8203,-2.8208,-2.8167,-2.8164,-2.8246,-2.8255,-2.8264,-2.8359,-2.829,-2.8295,-2.8298,-2.8509,-2.8512,-2.8515,0,0,0,0,0,0,-2.7985,-2.8001,-2.8133,-2.8073,-2.8089,-2.8118,-2.8154,-2.8158,-2.818,-2.8212,-2.8216,-2.8185,-2.8245,-2.8257,-2.8325,-2.8362,-2.8297,-2.8302,-2.8506,-2.851,-2.8514,-2.8549,0,0,0,0,0,0,-2.798,-2.7999,-2.803,-2.8073,-2.8092,-2.8193,-2.8156,-2.8161,-2.819,-2.8187,-2.823,-2.8235,-2.8244,-2.8317,-2.8331,-2.8368,-2.8306,-2.8503,-2.8508,-2.8512,-2.8545,-2.8554,-2.8562,0,0,0,0,0,-2.7973,-2.8036,-2.8032,-2.8048,-2.8132,-2.8196,-2.8206,-2.8216,-2.8193,-2.8224,-2.8244,-2.8234,-2.8356,-2.8325,-2.834,-2.8379,-2.8501,-2.8507,-2.8512,-2.8541,-2.8552,-2.8561,0,0,0,0,0,0,-2.7995,-2.8042,-2.8038,-2.8117,-2.8152,-2.8193,-2.8232,-2.8227,-2.8269,-2.8265,-2.8274,-2.8284,-2.8354,-2.8373,-2.8338,-2.8457,-2.8425,-2.8434,-2.8442,-2.8453,-2.8461,-2.8454,-2.8311,0,0,0,0,0,-2.801,-2.8059,-2.8096,-2.8162,-2.818,-2.8203,-2.8231,-2.8236,-2.8273,-2.8288,-2.8313,-2.8348,-2.8395,-2.8425,-2.8469,-2.8548,-2.8557,-2.8583,-2.8591,-2.8598,-2.8605,-2.8648,-2.8659,-2.8534,-2.8533,-2.8533,0,0,-2.8039,-2.807,-2.8101,-2.8167,-2.8196,-2.8245,-2.8216,-2.827,-2.8306,-2.8295,-2.8362,-2.8382,-2.8422,-2.8496,-2.853,-2.8514,-2.8642,-2.8605,-2.861,-2.8614,-2.8655,-2.8666,-2.8677,-2.8537,-2.8537,-2.8536,0,0,-2.8118,-2.8147,-2.8205,-2.8234,-2.8278,-2.8293,-2.8307,-2.8349,-2.8362,-2.8429,-2.8422,-2.8465,-2.8545,-2.8573,-2.8598,-2.8689,-2.868,-2.8703,-2.8745,-2.8787,-2.8797,-2.8806,-2.8837,-2.8848,-2.871,-2.871,-2.871,0,-2.8148,-2.8224,-2.8235,-2.829,-2.8319,-2.8313,-2.8371,-2.8399,-2.8454,-2.8474,-2.8456,-2.8556,-2.8583,-2.8663,-2.8685,-2.8706,-2.8721,-2.8697,-2.8795,-2.8804,-2.8812,-2.8842,-2.8854,-2.8713,-2.8712,-2.8712,-2.8712,0,-2.8259,-2.8312,-2.8353,-2.8408,-2.8442,-2.8498,-2.8517,-2.855,-2.8552,-2.8568,-2.8636,-2.8668,-2.8718,-2.8738,-2.874,-2.8819,-2.8808,-2.8793,-2.876,-2.8826,-2.8855,-2.8866,-2.8716,-2.8715,-2.8714,-2.8714,0,0,-2.8353,-2.8415,-2.843,-2.8455,-2.8503,-2.8543,-2.8598,-2.8649,-2.8677,-2.8715,-2.8761,-2.8829,-2.8815,-2.8844,-2.8849,-2.8885,-2.8954,-2.8865,-2.8866,-2.888,-2.9042,-2.9053,-2.9067,-2.8949,-2.8952,-2.8953,-2.9039,0,-2.8436,-2.8536,-2.8548,-2.8636,-2.8684,-2.8679,-2.8727,-2.8761,-2.8778,-2.8821,-2.8839,-2.8887,-2.8865,-2.8882,-2.8918,-2.8938,-2.8987,-2.8932,-2.8991,-2.8993,-2.8981,-2.9082,-2.9093,-2.9172,-2.905,-2.9052,-2.9053,0,-2.8546,-2.8589,-2.8682,-2.8724,-2.8745,-2.8788,-2.8835,-2.8876,-2.8915,-2.8924,-2.8956,-2.8957,-2.9013,-2.8979,-2.9056,-2.9019,-2.9043,-2.9057,-2.906,-2.9065,-2.9027,-2.9089,-2.9198,-2.9209,-2.9071,-2.907,-2.9068,0,-2.8605,-2.8686,-2.8752,-2.8774,-2.8824,-2.8855,-2.8877,-2.8913,-2.8943,-2.8984,-2.9003,-2.905,-2.9075,-2.9111,-2.9123,-2.9097,-2.92,-2.9167,-2.9208,-2.9208,-2.9229,-2.9227,-2.9343,-2.9246,-2.9246,-2.9246,-2.9246,0,-2.8696,-2.8753,-2.8779,-2.882,-2.8884,-2.8896,-2.8958,-2.8979,-2.9011,-2.9055,-2.9053,-2.9094,-2.9109,-2.9152,-2.9162,-2.9224,-2.9235,-2.9244,-2.9246,-2.9244,-2.9243,-2.9259,-2.9254,-2.9249,-2.9248,-2.9248,-2.9247,0,-2.8772,-2.8792,-2.8864,-2.8906,-2.8918,-2.8963,-2.8998,-2.9037,-2.9053,-2.9109,-2.9122,-2.9148,-2.9199,-2.9215,-2.9276,-2.9283,-2.9355,-2.9352,-2.9342,-2.9342,-2.9382,-2.9378,-2.9512,-2.953,-2.9422,-2.9424,-2.9424,0,-2.8828,-2.8872,-2.8919,-2.8949,-2.8973,-2.9021,-2.9052,-2.9066,-2.9097,-2.9145,-2.9177,-2.9228,-2.9269,-2.9349,-2.9373,-2.9419,-2.9417,-2.9461,-2.9424,-2.942,-2.9417,-2.9414,-2.9418,-2.9467,-2.9469,-2.9469,-2.947,0,-2.8926,-2.8934,-2.8979,-2.9028,-2.9065,-2.9104,-2.9141,-2.9165,-2.9184,-2.922,-2.9273,-2.9305,-2.9367,-2.9417,-2.9464,-2.9485,-2.9481,-2.9482,-2.9494,-2.9492,-2.9484,-2.9488,-2.936,-2.9479,-2.9478,-2.9477,-2.9477,-2.9476,-2.8993,-2.9032,-2.9072,-2.9122,-2.9152,-2.9187,-2.9225,-2.9247,-2.9292,-2.9344,-2.935,-2.9406,-2.9443,-2.9506,-2.953,-2.9573,-2.9561,-2.9578,-2.9582,-2.9586,-2.9589,-2.9478,-2.9582,-2.9582,-2.9582,-2.9581,-2.9581,0,-2.909,-2.9116,-2.9162,-2.9215,-2.9254,-2.9248,-2.9289,-2.9322,-2.9372,-2.9407,-2.9448,-2.9508,-2.9556,-2.9584,-2.9632,-2.9661,-2.966,-2.9673,-2.9671,-2.9676,-2.9598,-2.9583,-2.9673,-2.9673,-2.9673,-2.9673,-2.9673,-2.9673,-2.9145,-2.921,-2.9223,-2.9303,-2.9328,-2.9384,-2.9408,-2.944,-2.9468,-2.9535,-2.9576,-2.9594,-2.9626,-2.9677,-2.972,-2.9727,-2.9744,-2.9759,-2.9764,-2.9691,-2.9681,-2.9672,-2.9658,-2.9762,-2.9763,-2.9838,-2.9838,-2.9839]}]]